QPF
0.00 0.00 0.00 0.00 0.00 0.00 0.00 0.00 0.00 0.00 0.00 0.00 0.00 0.00 0.00 0.00 0.00 0.00 0.00 0.00 0.00 0.00 0.00 0.00 0.00 0.00 0.00 0.00 0.00 0.00 0.00 0.00 0.00 0.00 0.00 0.00 0.00 0.00 0.00 0.00 0.00 0.00 0.00 0.00 0.00 0.00 0.00
0.00 0.00 0.00 0.00 0.00 0.00 0.00 0.00 0.00 0.00 0.00 0.00 0.00 0.00 0.00 0.00 0.00 0.00 0.00 0.00 0.00 0.00 0.00 0.00 0.00 0.00 0.00 0.00 0.00 0.00 0.00 0.00 0.00 0.00 0.00 0.00 0.00 0.00 0.00 0.00 0.00 0.00 0.00 0.00 0.00 0.00 0.00
0.00 0.00 0.00 0.00 0.00 0.00 0.00 0.00 0.00 0.00 0.00 0.00 0.00 0.00 0.00 0.00 0.00 0.00 0.00 0.00 0.00 0.00 0.00 0.00 0.00 0.00 0.00 0.00 0.00 0.00 0.00 0.00 0.00 0.00 0.00 0.00 0.00 0.00 0.00 0.00 0.00 0.00 0.00 0.00 0.00 0.00 0.00
0.00 0.00 0.00 0.01 0.00 0.00 0.00 0.00 0.00 0.00 0.00 0.00 0.00 0.00 0.00 0.00 0.00 0.00 0.00 0.00 0.00 0.00 0.00 0.00 0.00 0.00 0.00 0.00 0.00 0.00 0.00 0.00 0.00 0.00 0.00 0.00 0.00 0.00 0.00 0.00 0.00 0.00 0.00 0.00 0.00 0.00 0.00
0.00 0.00 0.01 0.00 0.00 0.00 0.00 0.00 0.00 0.00 0.00 0.00 0.00 0.00 0.00 0.00 0.00 0.00 0.00 0.00 0.00 0.00 0.00 0.00 0.00 0.00 0.00 0.00 0.00 0.00 0.00 0.00 0.00 0.00 0.00 0.00 0.00 0.00 0.00 0.00 0.00 0.00 0.00 0.00 0.00 0.00 0.00
0.00 0.01 0.00 0.00 0.00 0.00 0.00 0.00 0.00 0.00 0.00 0.00 0.00 0.00 0.00 0.00 0.00 0.00 0.00 0.00 0.00 0.00 0.00 0.00 0.00 0.00 0.00 0.00 0.00 0.00 0.00 0.00 0.00 0.00 0.00 0.00 0.00 0.00 0.00 0.00 0.00 0.00 0.00 0.00 0.00 0.00 0.00
0.00 0.01 0.00 0.00 0.01 0.00 0.00 0.00 0.00 0.00 0.00 0.00 0.00 0.00 0.00 0.00 0.00 0.00 0.00 0.00 0.00 0.00 0.00 0.00 0.00 0.00 0.00 0.00 0.00 0.00 0.00 0.00 0.00 0.00 0.00 0.00 0.00 0.00 0.00 0.00 0.00 0.00 0.00 0.00 0.00 0.00 0.00
0.00 0.01 0.00 0.01 0.01 0.00 0.00 0.00 0.00 0.00 0.00 0.00 0.00 0.00 0.00 0.00 0.00 0.00 0.00 0.00 0.00 0.00 0.00 0.00 0.00 0.00 0.00 0.00 0.00 0.00 0.00 0.00 0.00 0.00 0.00 0.00 0.00 0.00 0.00 0.00 0.00 0.00 0.00 0.00 0.00 0.00 0.00
0.00 0.01 0.00 0.00 0.01 0.00 0.00 0.00 0.00 0.00 0.00 0.00 0.00 0.00 0.00 0.00 0.00 0.00 0.00 0.00 0.00 0.00 0.00 0.00 0.00 0.00 0.00 0.00 0.00 0.00 0.00 0.00 0.00 0.00 0.00 0.00 0.00 0.00 0.00 0.00 0.00 0.00 0.00 0.00 0.00 0.00 0.00
0.01 0.00 0.00 0.00 0.00 0.01 0.00 0.00 0.00 0.00 0.00 0.00 0.00 0.00 0.00 0.00 0.00 0.00 0.00 0.00 0.00 0.00 0.00 0.00 0.00 0.00 0.00 0.00 0.00 0.00 0.00 0.00 0.00 0.00 0.00 0.00 0.00 0.00 0.00 0.00 0.00 0.00 0.00 0.00 0.00 0.00 0.01
0.01 0.01 0.00 0.00 0.00 0.00 0.00 0.00 0.00 0.00 0.00 0.00 0.00 0.00 0.00 0.00 0.00 0.00 0.00 0.00 0.00 0.00 0.00 0.00 0.00 0.00 0.00 0.00 0.00 0.00 0.00 0.00 0.00 0.00 0.00 0.00 0.00 0.00 0.00 0.00 0.00 0.00 0.00 0.00 0.00 0.00 0.01
0.00 0.00 0.00 0.00 0.00 0.00 0.01 0.00 0.00 0.00 0.01 0.00 0.00 0.00 0.00 0.00 0.00 0.00 0.00 0.00 0.00 0.00 0.00 0.00 0.00 0.00 0.00 0.00 0.00 0.00 0.00 0.00 0.00 0.00 0.00 0.00 0.00 0.00 0.00 0.00 0.00 0.00 0.00 0.00 0.00 0.02 0.02
0.01 0.00 0.00 0.00 0.00 0.00 0.00 0.00 0.00 0.00 0.01 0.00 0.00 0.00 0.00 0.00 0.00 0.00 0.00 0.00 0.00 0.00 0.00 0.00 0.00 0.00 0.00 0.00 0.00 0.00 0.00 0.00 0.00 0.00 0.00 0.00 0.00 0.00 0.00 0.00 0.00 0.00 0.00 0.00 0.00 0.01 0.01
0.01 0.01 0.01 0.00 0.00 0.00 0.00 0.00 0.00 0.00 0.01 0.00 0.00 0.00 0.00 0.00 0.00 0.00 0.00 0.00 0.00 0.00 0.00 0.00 0.00 0.00 0.00 0.00 0.00 0.00 0.00 0.00 0.00 0.00 0.00 0.00 0.00 0.00 0.00 0.00 0.00 0.00 0.00 0.01 0.01 0.01 0.00
0.01 0.01 0.01 0.01 0.00 0.00 0.00 0.00 0.00 0.00 0.00 0.00 0.00 0.00 0.00 0.00 0.00 0.00 0.00 0.00 0.00 0.00 0.00 0.00 0.00 0.00 0.00 0.00 0.00 0.00 0.00 0.00 0.00 0.00 0.00 0.00 0.00 0.00 0.00 0.00 0.00 0.00 0.01 0.00 0.01 0.02 0.01
0.02 0.02 0.01 0.01 0.00 0.00 0.00 0.00 0.00 0.00 0.00 0.00 0.00 0.00 0.00 0.00 0.00 0.00 0.00 0.00 0.00 0.00 0.00 0.00 0.00 0.00 0.00 0.00 0.00 0.00 0.00 0.00 0.00 0.00 0.00 0.00 0.00 0.00 0.00 0.00 0.00 0.00 0.00 0.00 0.00 0.00 0.01
0.03 0.03 0.02 0.02 0.01 0.00 0.00 0.00 0.01 0.00 0.00 0.00 0.00 0.00 0.00 0.00 0.00 0.00 0.00 0.00 0.00 0.00 0.00 0.00 0.00 0.00 0.00 0.00 0.00 0.00 0.00 0.00 0.00 0.00 0.00 0.00 0.00 0.00 0.00 0.00 0.00 0.00 0.00 0.00 0.00 0.00 0.00
0.02 0.02 0.02 0.02 0.02 0.01 0.00 0.00 0.01 0.01 0.00 0.00 0.00 0.00 0.00 0.00 0.00 0.00 0.00 0.00 0.00 0.00 0.00 0.00 0.00 0.00 0.00 0.00 0.00 0.00 0.00 0.00 0.00 0.00 0.00 0.00 0.00 0.00 0.00 0.00 0.00 0.00 0.00 0.00 0.00 0.00 0.00
0.01 0.02 0.02 0.02 0.02 0.01 0.00 0.00 0.01 0.02 0.00 0.00 0.00 0.00 0.00 0.00 0.00 0.00 0.00 0.00 0.00 0.00 0.00 0.00 0.00 0.00 0.00 0.00 0.00 0.00 0.00 0.00 0.00 0.00 0.00 0.00 0.00 0.00 0.00 0.00 0.00 0.00 0.00 0.00 0.00 0.00 0.00
0.00 0.01 0.02 0.02 0.02 0.01 0.01 0.00 0.01 0.02 0.00 0.00 0.00 0.00 0.00 0.00 0.00 0.00 0.00 0.00 0.00 0.00 0.00 0.00 0.00 0.00 0.00 0.00 0.00 0.00 0.00 0.00 0.00 0.00 0.00 0.00 0.00 0.00 0.00 0.00 0.00 0.00 0.00 0.00 0.00 0.00 0.00
0.00 0.01 0.01 0.02 0.02 0.02 0.01 0.00 0.01 0.03 0.01 0.00 0.00 0.00 0.00 0.00 0.00 0.00 0.00 0.00 0.00 0.00 0.00 0.00 0.00 0.00 0.00 0.00 0.00 0.00 0.00 0.00 0.00 0.00 0.00 0.00 0.00 0.00 0.00 0.00 0.00 0.00 0.00 0.00 0.00 0.00 0.00
0.01 0.01 0.01 0.01 0.02 0.02 0.01 0.00 0.01 0.02 0.03 0.00 0.00 0.00 0.00 0.00 0.00 0.00 0.00 0.00 0.00 0.00 0.00 0.00 0.00 0.00 0.00 0.00 0.00 0.00 0.00 0.00 0.00 0.00 0.00 0.00 0.00 0.00 0.00 0.00 0.00 0.00 0.00 0.00 0.00 0.00 0.00
0.01 0.01 0.01 0.01 0.01 0.02 0.02 0.01 0.00 0.03 0.03 0.00 0.00 0.00 0.00 0.00 0.00 0.00 0.00 0.00 0.00 0.00 0.00 0.00 0.00 0.00 0.00 0.00 0.00 0.00 0.00 0.00 0.00 0.00 0.00 0.00 0.00 0.00 0.00 0.00 0.00 0.00 0.00 0.00 0.00 0.00 0.00
0.01 0.01 0.01 0.01 0.01 0.02 0.02 0.01 0.01 0.01 0.02 0.00 0.00 0.00 0.00 0.00 0.00 0.00 0.00 0.00 0.00 0.00 0.00 0.00 0.00 0.00 0.00 0.00 0.00 0.00 0.00 0.00 0.00 0.00 0.00 0.00 0.00 0.00 0.00 0.00 0.00 0.00 0.00 0.00 0.00 0.00 0.00
0.01 0.01 0.01 0.01 0.02 0.02 0.02 0.02 0.01 0.01 0.03 0.00 0.00 0.00 0.00 0.00 0.00 0.00 0.00 0.00 0.00 0.00 0.00 0.00 0.00 0.00 0.00 0.00 0.00 0.00 0.00 0.00 0.00 0.00 0.00 0.00 0.00 0.00 0.00 0.00 0.00 0.00 0.00 0.00 0.00 0.00 0.00
0.02 0.02 0.02 0.01 0.01 0.01 0.02 0.01 0.01 0.00 0.03 0.01 0.00 0.00 0.00 0.00 0.00 0.00 0.00 0.00 0.00 0.00 0.00 0.00 0.00 0.00 0.00 0.00 0.00 0.00 0.00 0.00 0.00 0.00 0.00 0.00 0.00 0.00 0.00 0.00 0.00 0.00 0.00 0.00 0.00 0.00 0.00
0.03 0.03 0.03 0.02 0.01 0.01 0.02 0.01 0.01 0.01 0.03 0.02 0.00 0.00 0.00 0.00 0.00 0.00 0.00 0.00 0.00 0.00 0.00 0.00 0.00 0.00 0.00 0.00 0.00 0.00 0.00 0.00 0.00 0.00 0.00 0.00 0.00 0.00 0.00 0.00 0.00 0.00 0.00 0.00 0.00 0.00 0.00
0.04 0.03 0.02 0.02 0.01 0.01 0.01 0.02 0.01 0.01 0.03 0.02 0.00 0.00 0.00 0.00 0.00 0.00 0.00 0.00 0.00 0.00 0.00 0.00 0.00 0.00 0.00 0.00 0.00 0.00 0.00 0.00 0.00 0.00 0.00 0.00 0.00 0.00 0.00 0.00 0.00 0.00 0.00 0.00 0.00 0.00 0.00
0.03 0.03 0.01 0.01 0.01 0.01 0.01 0.02 0.02 0.02 0.03 0.03 0.00 0.00 0.00 0.00 0.00 0.00 0.00 0.00 0.00 0.00 0.00 0.00 0.00 0.00 0.00 0.00 0.00 0.00 0.00 0.00 0.00 0.00 0.00 0.00 0.00 0.00 0.00 0.00 0.00 0.00 0.00 0.00 0.00 0.00 0.00
MSLP
1024.08 1024.27 1024.42 1024.58 1024.62 1024.59 1024.47 1024.38 1024.25 1024.10 1023.76 1023.41 1023.19 1022.85 1022.42 1022.05 1021.57 1021.10 1020.84 1020.64 1020.43 1020.13 1019.89 1019.59 1019.21 1018.80 1018.61 1018.78 1019.18 1018.76 1018.39 1017.99 1017.81 1017.79 1017.66 1017.45 1017.35 1017.60 1017.71 1017.87 1017.59 1017.12 1016.92 1016.91 1016.75 1016.05 1015.07
1024.18 1024.24 1024.30 1024.45 1024.53 1024.45 1024.38 1024.37 1024.16 1023.89 1023.63 1023.41 1023.18 1022.76 1022.39 1022.00 1021.58 1021.16 1020.78 1020.55 1020.31 1020.11 1019.86 1019.52 1019.27 1019.11 1019.08 1018.77 1018.89 1018.82 1018.47 1018.03 1018.23 1017.99 1017.94 1017.86 1017.95 1018.04 1018.20 1018.25 1018.23 1017.79 1017.56 1017.20 1016.74 1016.45 1015.64
1024.18 1024.22 1024.16 1024.17 1024.30 1024.31 1024.24 1024.21 1024.06 1023.79 1023.57 1023.34 1023.04 1022.66 1022.31 1021.88 1021.52 1021.11 1020.62 1020.35 1020.07 1019.89 1019.73 1019.65 1019.68 1019.68 1019.25 1019.32 1018.95 1018.70 1018.40 1018.29 1018.39 1018.19 1018.18 1018.33 1018.24 1018.29 1018.58 1018.69 1018.77 1018.43 1017.74 1017.08 1016.42 1015.93 1015.17
1024.22 1024.08 1024.04 1023.95 1024.14 1024.18 1023.98 1023.86 1023.77 1023.57 1023.38 1023.25 1022.95 1022.60 1022.25 1021.84 1021.43 1021.05 1020.56 1020.15 1019.73 1019.78 1019.85 1019.82 1019.86 1019.72 1019.34 1018.99 1018.93 1018.55 1018.28 1018.04 1018.22 1018.29 1018.42 1018.42 1018.46 1018.71 1018.98 1019.22 1018.97 1018.64 1018.22 1017.31 1016.64 1016.35 1015.39
1024.09 1023.93 1023.89 1023.91 1024.01 1023.99 1023.82 1023.62 1023.51 1023.25 1023.09 1023.13 1022.88 1022.54 1022.19 1021.78 1021.39 1021.07 1020.60 1020.17 1019.92 1019.94 1019.96 1019.89 1019.92 1019.77 1019.40 1018.76 1018.95 1018.78 1018.67 1018.69 1018.58 1018.40 1018.40 1018.36 1018.63 1019.07 1019.33 1019.35 1019.16 1019.02 1018.40 1018.19 1017.68 1017.13 1015.98
1023.92 1023.69 1023.67 1023.83 1023.90 1023.86 1023.71 1023.45 1023.28 1023.17 1022.96 1022.96 1022.81 1022.58 1022.23 1021.83 1021.42 1021.09 1020.66 1020.40 1020.22 1020.19 1020.11 1020.02 1020.18 1020.32 1019.68 1019.91 1019.55 1019.13 1018.78 1018.92 1019.07 1018.93 1018.85 1019.01 1019.46 1019.62 1019.92 1019.92 1019.75 1019.54 1019.14 1018.64 1018.12 1017.48 1016.79
1023.66 1023.65 1023.60 1023.50 1023.63 1023.70 1023.63 1023.39 1023.22 1023.04 1023.00 1022.87 1022.72 1022.56 1022.33 1021.93 1021.45 1021.04 1020.70 1020.54 1020.84 1021.01 1020.55 1020.83 1020.83 1020.55 1020.30 1020.13 1019.76 1019.37 1019.01 1019.17 1019.40 1019.64 1019.55 1019.81 1019.76 1019.98 1020.15 1020.42 1020.35 1020.06 1019.46 1018.47 1017.50 1017.71 1016.97
1023.41 1023.37 1023.49 1023.39 1023.49 1023.47 1023.48 1023.37 1023.26 1023.04 1022.90 1022.80 1022.63 1022.54 1022.34 1021.97 1021.57 1021.09 1021.10 1021.77 1022.40 1022.62 1021.86 1021.13 1020.87 1020.64 1020.41 1020.28 1020.05 1019.79 1019.51 1019.67 1019.91 1020.01 1020.09 1020.18 1020.16 1020.44 1020.46 1020.45 1020.14 1019.60 1019.35 1017.95 1017.58 1017.07 1016.73
1023.09 1023.07 1023.08 1023.06 1023.23 1023.24 1023.25 1023.27 1023.20 1023.04 1022.83 1022.72 1022.53 1022.46 1022.30 1021.91 1021.51 1021.54 1021.97 1022.52 1022.45 1022.40 1022.13 1021.20 1020.59 1020.39 1020.27 1020.34 1020.54 1020.24 1019.99 1020.28 1020.44 1020.36 1020.51 1020.52 1020.47 1020.51 1020.26 1020.07 1019.69 1019.47 1019.13 1018.11 1017.60 1016.91 1016.46
1022.54 1022.76 1022.75 1022.86 1022.95 1022.99 1023.05 1023.09 1023.09 1022.97 1022.75 1022.60 1022.49 1022.38 1022.25 1021.85 1021.92 1022.34 1022.37 1022.37 1022.34 1022.38 1022.26 1021.51 1020.57 1019.99 1020.08 1020.34 1020.70 1020.36 1020.31 1020.67 1020.59 1020.81 1020.70 1020.73 1020.52 1020.44 1020.11 1019.99 1019.98 1018.85 1018.59 1018.40 1017.29 1017.20 1016.08
1022.01 1022.21 1022.37 1022.49 1022.71 1022.73 1022.73 1022.81 1022.92 1022.87 1022.67 1022.40 1022.48 1022.38 1022.26 1022.12 1022.40 1022.52 1022.63 1022.32 1022.36 1022.44 1022.47 1021.69 1020.47 1019.82 1020.21 1020.76 1021.13 1020.89 1020.79 1020.68 1021.10 1021.21 1021.29 1020.98 1020.67 1020.38 1020.25 1020.18 1020.18 1018.96 1018.68 1018.12 1017.35 1016.90 1016.43
1021.36 1021.55 1021.76 1022.04 1022.29 1022.45 1022.45 1022.48 1022.58 1022.64 1022.58 1022.43 1022.53 1022.49 1022.40 1022.49 1022.72 1022.54 1022.40 1022.33 1022.48 1022.85 1022.41 1021.58 1020.83 1020.67 1020.99 1021.35 1021.61 1021.51 1021.43 1021.25 1021.41 1021.46 1021.42 1021.29 1021.02 1020.75 1020.69 1020.08 1019.51 1018.97 1018.56 1017.50 1016.84 1016.93 1016.37
1020.62 1020.98 1021.21 1021.46 1021.63 1021.94 1022.18 1022.14 1022.22 1022.36 1022.39 1022.50 1022.62 1022.61 1022.65 1022.74 1022.57 1022.46 1022.38 1022.62 1023.21 1022.90 1022.71 1021.96 1021.48 1021.44 1021.73 1022.02 1022.21 1022.40 1022.58 1022.38 1022.51 1022.17 1022.10 1021.77 1021.23 1020.89 1020.56 1019.67 1018.99 1018.96 1018.47 1017.38 1016.98 1016.70 1015.29
1019.78 1020.04 1020.54 1020.90 1021.21 1021.43 1021.70 1021.87 1021.92 1022.02 1022.16 1022.38 1022.62 1022.73 1022.77 1022.65 1022.44 1022.43 1022.72 1023.12 1023.38 1022.82 1022.22 1021.80 1021.72 1021.94 1022.25 1022.56 1022.87 1023.03 1023.16 1023.29 1023.33 1023.40 1023.26 1022.66 1021.59 1021.19 1020.42 1020.40 1020.22 1019.59 1019.14 1018.61 1017.74 1016.66 1015.08
1019.21 1019.38 1019.60 1020.14 1020.56 1020.79 1021.26 1021.45 1021.59 1021.73 1021.86 1022.20 1022.65 1023.05 1022.98 1022.39 1022.52 1022.46 1023.13 1023.51 1022.14 1021.96 1021.62 1021.63 1022.00 1022.20 1022.63 1022.89 1023.04 1023.32 1023.71 1023.83 1023.91 1023.78 1023.70 1023.17 1022.41 1021.41 1020.81 1020.38 1020.17 1019.69 1019.52 1019.79 1018.80 1017.48 1016.66
1018.31 1018.67 1019.01 1019.27 1019.65 1020.14 1020.63 1021.04 1021.24 1021.41 1021.64 1021.99 1022.84 1023.33 1022.81 1022.29 1022.67 1022.87 1023.37 1022.97 1022.18 1021.57 1021.22 1021.41 1021.59 1022.10 1022.48 1022.92 1023.23 1023.42 1023.72 1024.10 1024.03 1023.92 1023.86 1023.72 1023.02 1021.76 1021.02 1020.65 1020.44 1020.38 1020.16 1019.81 1019.25 1018.67 1017.64
1018.01 1017.83 1018.17 1018.61 1018.95 1019.31 1019.74 1020.53 1020.91 1021.14 1021.40 1021.83 1022.81 1023.26 1022.80 1022.57 1022.74 1023.26 1023.35 1022.73 1021.90 1021.18 1020.85 1021.13 1021.53 1022.00 1022.36 1022.76 1023.16 1023.43 1023.71 1024.06 1023.99 1023.84 1023.88 1023.84 1023.70 1022.30 1021.62 1021.75 1021.49 1020.82 1020.78 1020.78 1020.66 1020.23 1019.42
1017.62 1017.48 1017.29 1017.71 1018.21 1018.61 1018.92 1019.60 1020.40 1020.93 1021.36 1021.70 1022.64 1023.30 1022.93 1022.90 1023.40 1023.77 1023.34 1022.31 1021.25 1020.89 1020.83 1020.90 1021.22 1021.65 1022.14 1022.65 1023.02 1023.30 1023.43 1023.56 1023.80 1023.89 1023.96 1024.06 1023.85 1023.15 1022.57 1022.40 1022.18 1021.79 1021.74 1021.55 1021.36 1021.28 1020.70
1017.03 1017.10 1016.96 1016.88 1017.17 1017.80 1018.22 1018.70 1019.69 1020.36 1020.92 1021.74 1022.29 1022.66 1022.90 1022.84 1023.23 1023.68 1023.26 1022.27 1021.40 1020.89 1020.65 1020.88 1021.15 1021.37 1021.92 1022.46 1023.02 1023.23 1023.34 1023.42 1023.61 1023.77 1023.95 1023.97 1024.08 1023.60 1022.78 1022.88 1022.43 1022.12 1021.83 1021.89 1021.67 1021.74 1021.23
1016.18 1016.40 1016.46 1016.30 1016.08 1016.65 1017.37 1017.81 1018.77 1019.56 1020.37 1021.20 1022.01 1022.47 1022.82 1022.86 1022.81 1022.66 1022.58 1021.97 1021.42 1020.84 1020.65 1020.62 1020.98 1021.35 1021.94 1022.46 1022.77 1023.11 1023.32 1023.38 1023.51 1023.65 1023.83 1023.97 1024.16 1024.05 1023.98 1023.83 1023.84 1022.74 1021.87 1021.72 1021.52 1021.13 1021.19
1015.29 1015.27 1015.65 1015.93 1015.21 1015.54 1016.27 1016.91 1017.69 1018.67 1019.59 1020.83 1021.33 1020.80 1020.16 1021.50 1022.14 1022.05 1021.89 1021.26 1020.95 1020.92 1020.79 1020.67 1021.05 1021.03 1021.48 1022.38 1022.80 1022.96 1023.22 1023.37 1023.58 1023.58 1024.05 1024.22 1024.45 1024.50 1024.30 1024.08 1023.85 1023.05 1022.37 1021.65 1021.16 1021.04 1020.86
1014.50 1014.42 1014.59 1014.87 1015.03 1014.58 1015.10 1015.83 1016.63 1017.54 1018.86 1020.04 1020.54 1020.45 1020.53 1020.41 1020.53 1021.28 1021.25 1020.73 1020.38 1020.46 1020.48 1020.76 1020.78 1020.95 1021.29 1021.65 1021.97 1022.43 1022.89 1023.28 1023.43 1024.01 1024.26 1024.74 1024.83 1024.92 1024.68 1024.14 1023.67 1022.86 1022.20 1021.74 1021.34 1021.23 1021.23
1013.39 1013.69 1013.68 1013.69 1014.19 1014.27 1013.80 1014.69 1015.57 1016.42 1017.44 1017.96 1019.50 1019.71 1019.51 1019.74 1019.94 1020.20 1019.71 1019.82 1019.75 1019.91 1020.26 1020.07 1020.45 1021.06 1021.31 1021.30 1021.74 1022.17 1022.59 1022.99 1023.29 1023.76 1024.30 1024.82 1025.03 1025.30 1024.90 1024.40 1023.56 1023.01 1022.00 1021.64 1021.42 1021.33 1021.22
1012.34 1012.47 1012.74 1013.08 1013.46 1013.42 1013.87 1013.20 1014.17 1014.87 1015.99 1016.90 1017.95 1018.87 1019.11 1019.37 1019.29 1018.72 1018.64 1019.07 1019.29 1019.40 1019.66 1020.21 1020.61 1020.82 1021.23 1021.34 1022.17 1022.84 1023.35 1023.55 1023.73 1023.98 1024.27 1024.72 1025.11 1025.59 1025.43 1024.57 1023.67 1022.17 1021.76 1021.53 1021.36 1021.48 1021.40
1011.36 1011.48 1011.52 1011.87 1012.07 1012.46 1012.58 1012.01 1012.97 1013.57 1014.83 1016.10 1017.01 1017.69 1018.06 1018.55 1018.51 1018.53 1018.40 1018.41 1018.97 1019.40 1019.69 1020.15 1020.57 1020.61 1021.10 1021.76 1022.89 1023.65 1024.22 1024.12 1024.18 1024.03 1024.33 1024.70 1025.11 1025.88 1025.90 1024.73 1023.22 1022.04 1021.45 1021.25 1021.11 1021.36 1021.34
1010.09 1010.33 1010.50 1010.75 1010.90 1011.40 1011.91 1012.67 1011.41 1012.52 1013.39 1015.29 1016.31 1016.65 1017.41 1017.70 1017.60 1017.34 1017.84 1018.08 1018.52 1019.27 1019.99 1020.39 1020.98 1021.18 1021.49 1022.79 1023.56 1024.08 1024.04 1023.74 1024.01 1024.28 1024.40 1024.88 1025.07 1025.28 1025.94 1024.62 1022.65 1021.00 1020.96 1021.06 1021.27 1021.00 1021.14
1009.01 1009.20 1009.43 1009.66 1009.98 1010.21 1010.55 1010.80 1010.09 1011.34 1012.28 1014.26 1015.40 1016.00 1016.96 1017.21 1016.90 1016.84 1017.06 1017.33 1017.71 1018.55 1019.47 1020.39 1020.98 1021.60 1021.95 1023.23 1024.10 1024.26 1023.74 1023.32 1023.03 1023.01 1023.73 1024.44 1025.02 1025.19 1025.13 1023.91 1021.92 1020.73 1020.73 1021.09 1021.22 1021.05 1020.93
1007.81 1008.01 1008.28 1008.50 1008.64 1009.23 1009.54 1010.05 1009.00 1010.09 1011.26 1013.02 1014.43 1015.27 1015.73 1016.49 1016.90 1016.56 1016.41 1016.66 1017.28 1017.64 1018.73 1020.05 1020.87 1021.78 1022.53 1023.10 1023.78 1023.97 1023.56 1022.86 1022.48 1022.04 1022.08 1022.49 1023.43 1024.01 1024.18 1023.18 1021.34 1020.33 1020.62 1020.57 1020.44 1020.49 1020.68
1006.52 1006.81 1007.08 1007.35 1007.75 1007.83 1008.37 1008.48 1008.67 1008.74 1010.15 1011.98 1013.52 1014.34 1015.25 1016.25 1016.73 1016.51 1016.29 1016.14 1015.98 1016.36 1017.60 1019.17 1019.28 1020.11 1020.83 1022.27 1023.42 1023.49 1023.18 1022.80 1022.10 1021.58 1021.53 1021.55 1021.22 1021.57 1021.91 1020.86 1020.16 1020.00 1019.83 1019.90 1020.28 1020.49 1020.65
Thickness
5527 5525 5525 5522 5521 5521 5522 5524 5526 5528 5530 5533 5534 5537 5541 5544 5548 5552 5554 5555 5557 5561 5563 5568 5574 5579 5584 5586 5583 5589 5594 5601 5604 5606 5608 5611 5612 5610 5610 5609 5615 5619 5622 5619 5620 5628 5639
5524 5523 5523 5522 5521 5522 5522 5522 5524 5527 5529 5530 5532 5536 5540 5544 5548 5551 5554 5556 5559 5562 5565 5569 5572 5576 5580 5581 5583 5586 5591 5596 5596 5599 5600 5603 5601 5601 5599 5598 5600 5606 5607 5610 5613 5612 5622
5522 5521 5521 5522 5521 5521 5522 5522 5522 5525 5527 5529 5531 5535 5538 5543 5547 5551 5555 5558 5561 5564 5566 5568 5568 5571 5577 5574 5580 5584 5587 5590 5590 5592 5592 5591 5591 5591 5588 5586 5587 5589 5594 5601 5607 5606 5609
5517 5519 5519 5520 5519 5519 5521 5522 5522 5523 5526 5527 5530 5533 5537 5541 5545 5549 5554 5559 5563 5564 5564 5565 5566 5569 5572 5575 5577 5581 5583 5586 5586 5586 5584 5582 5581 5577 5574 5572 5573 5573 5577 5582 5589 5588 5594
5513 5515 5516 5516 5517 5516 5518 5520 5521 5524 5525 5526 5529 5532 5535 5538 5542 5546 5552 5556 5559 5560 5561 5563 5564 5567 5569 5574 5574 5576 5578 5577 5578 5579 5576 5575 5570 5562 5559 5555 5558 5552 5560 5556 5561 5567 5574
5508 5512 5513 5513 5513 5514 5514 5516 5518 5521 5524 5525 5527 5530 5533 5536 5539 5543 5548 5552 5554 5556 5558 5559 5559 5564 5565 5562 5566 5569 5572 5571 5567 5566 5564 5558 5549 5546 5537 5534 5530 5527 5529 5533 5533 5541 5546
5503 5505 5508 5510 5510 5510 5511 5513 5514 5517 5520 5523 5525 5527 5530 5533 5537 5541 5546 5548 5550 5552 5553 5554 5555 5557 5558 5558 5561 5563 5566 5563 5558 5552 5548 5540 5541 5530 5520 5508 5503 5498 5498 5505 5517 5512 5522
5498 5500 5502 5504 5506 5507 5508 5509 5511 5513 5516 5519 5523 5524 5527 5531 5534 5539 5540 5537 5532 5532 5547 5543 5545 5548 5550 5552 5553 5555 5556 5554 5549 5541 5536 5531 5523 5509 5495 5484 5478 5479 5473 5486 5490 5495 5497
5494 5496 5498 5499 5500 5503 5504 5505 5507 5510 5513 5515 5519 5521 5524 5528 5533 5533 5531 5527 5529 5531 5537 5547 5548 5548 5550 5550 5544 5546 5547 5540 5537 5534 5522 5514 5513 5496 5485 5476 5473 5471 5462 5469 5470 5478 5482
5491 5490 5492 5493 5495 5497 5500 5502 5503 5505 5509 5511 5514 5517 5520 5525 5527 5523 5526 5525 5527 5528 5534 5542 5545 5547 5547 5543 5539 5541 5539 5534 5533 5524 5516 5509 5502 5486 5480 5474 5469 5465 5474 5460 5469 5456 5466
5486 5487 5487 5488 5489 5492 5494 5497 5498 5501 5504 5508 5508 5512 5515 5519 5519 5521 5521 5523 5524 5525 5518 5535 5540 5544 5540 5536 5532 5532 5530 5528 5519 5512 5508 5504 5490 5481 5475 5469 5460 5461 5461 5455 5460 5457 5459
5481 5482 5483 5483 5483 5485 5488 5491 5494 5496 5498 5501 5503 5505 5509 5511 5512 5515 5517 5518 5520 5513 5505 5529 5533 5530 5530 5525 5522 5522 5520 5519 5512 5506 5502 5494 5486 5480 5469 5468 5467 5461 5456 5469 5467 5457 5446
5478 5477 5477 5478 5479 5479 5481 5485 5488 5490 5493 5494 5496 5499 5501 5504 5509 5510 5512 5513 5505 5506 5511 5522 5523 5522 5517 5514 5514 5506 5502 5502 5498 5498 5487 5484 5480 5477 5473 5466 5474 5465 5464 5472 5463 5454 5478
5473 5474 5472 5473 5473 5474 5474 5477 5481 5485 5488 5489 5489 5492 5495 5498 5503 5505 5505 5507 5491 5496 5514 5520 5518 5515 5512 5508 5503 5498 5496 5492 5490 5480 5471 5469 5481 5470 5474 5462 5449 5446 5455 5463 5464 5465 5497
5465 5467 5468 5467 5468 5469 5469 5471 5473 5478 5481 5483 5483 5485 5489 5495 5496 5499 5497 5482 5498 5505 5517 5515 5512 5510 5505 5502 5502 5495 5487 5484 5481 5478 5471 5465 5466 5470 5469 5468 5464 5455 5458 5444 5459 5472 5491
5459 5459 5460 5461 5463 5463 5463 5464 5467 5470 5473 5476 5474 5474 5484 5489 5489 5490 5486 5494 5503 5508 5515 5513 5515 5507 5502 5499 5497 5492 5485 5479 5477 5475 5468 5463 5456 5469 5468 5465 5464 5459 5462 5462 5464 5463 5482
5447 5451 5453 5453 5455 5457 5458 5456 5459 5462 5465 5468 5465 5469 5476 5479 5481 5481 5481 5482 5498 5508 5515 5512 5504 5502 5501 5495 5491 5486 5483 5476 5473 5472 5466 5461 5453 5468 5467 5450 5444 5454 5449 5442 5443 5447 5463
5432 5438 5444 5446 5447 5448 5452 5451 5449 5452 5455 5458 5454 5455 5466 5468 5467 5459 5468 5488 5504 5509 5508 5509 5504 5503 5499 5492 5490 5486 5483 5482 5472 5466 5462 5459 5454 5450 5454 5450 5448 5447 5440 5440 5445 5443 5442
5418 5423 5429 5434 5439 5440 5442 5444 5442 5442 5446 5445 5447 5453 5456 5461 5451 5453 5460 5477 5493 5502 5505 5503 5502 5502 5495 5492 5481 5483 5482 5478 5470 5467 5462 5461 5449 5449 5462 5453 5451 5441 5446 5441 5440 5428 5436
5404 5409 5414 5422 5430 5433 5433 5436 5435 5435 5436 5437 5436 5447 5444 5450 5452 5464 5469 5478 5483 5491 5496 5498 5498 5496 5492 5487 5482 5476 5477 5475 5469 5466 5464 5459 5453 5449 5445 5436 5432 5439 5448 5443 5437 5452 5447
5388 5395 5400 5405 5417 5422 5425 5427 5428 5427 5428 5425 5426 5447 5462 5457 5454 5463 5467 5477 5485 5483 5487 5492 5490 5495 5493 5457 5471 5475 5473 5471 5466 5467 5456 5454 5446 5447 5446 5441 5435 5438 5441 5448 5449 5448 5449
5368 5377 5384 5391 5399 5410 5415 5418 5418 5419 5417 5417 5421 5433 5439 5455 5458 5460 5464 5468 5482 5480 5482 5483 5486 5487 5485 5483 5486 5464 5475 5469 5468 5457 5454 5441 5441 5438 5419 5442 5439 5443 5448 5446 5450 5447 5441
5347 5354 5365 5374 5382 5391 5405 5408 5410 5411 5414 5420 5412 5422 5440 5448 5450 5457 5469 5473 5476 5476 5475 5483 5482 5476 5477 5484 5480 5478 5473 5468 5466 5460 5452 5440 5435 5426 5436 5435 5442 5438 5447 5445 5443 5440 5440
5318 5331 5341 5351 5361 5373 5379 5398 5402 5407 5411 5414 5415 5416 5427 5434 5446 5459 5466 5472 5467 5472 5475 5472 5470 5475 5474 5470 5465 5461 5455 5453 5451 5449 5449 5439 5434 5413 5429 5433 5435 5454 5448 5445 5443 5435 5435
5284 5300 5317 5328 5341 5353 5368 5385 5392 5400 5402 5404 5407 5413 5419 5423 5441 5444 5456 5466 5461 5464 5468 5465 5465 5470 5463 5463 5453 5438 5429 5436 5422 5444 5439 5439 5431 5401 5430 5427 5439 5446 5448 5446 5443 5436 5433
5254 5268 5284 5302 5319 5332 5344 5350 5382 5389 5395 5394 5400 5406 5411 5417 5431 5447 5449 5454 5451 5451 5453 5454 5448 5450 5452 5440 5438 5437 5449 5442 5447 5439 5434 5429 5426 5431 5389 5423 5430 5458 5450 5444 5437 5432 5432
5234 5245 5258 5275 5294 5313 5329 5346 5370 5378 5385 5385 5392 5398 5399 5409 5425 5435 5441 5449 5450 5450 5450 5444 5445 5447 5442 5425 5425 5433 5446 5448 5455 5457 5429 5425 5405 5419 5390 5428 5442 5452 5445 5436 5428 5437 5430
5225 5234 5245 5258 5277 5295 5314 5331 5355 5368 5375 5376 5386 5389 5397 5401 5410 5425 5435 5438 5439 5448 5446 5440 5440 5434 5425 5431 5431 5419 5428 5444 5449 5457 5452 5447 5427 5417 5396 5407 5429 5447 5440 5440 5440 5432 5428
5223 5229 5239 5251 5264 5287 5305 5326 5338 5359 5366 5367 5374 5383 5386 5392 5402 5412 5424 5433 5444 5449 5443 5431 5449 5441 5441 5424 5413 5413 5429 5425 5441 5450 5445 5451 5456 5447 5438 5447 5446 5445 5446 5441 5431 5428 5424